Regional Weather Roundup
Issued by NWS

Home | Current Version | Previous Version | Graphics & Text | Print | Product List | Glossary On
Versions: 1 2 3 4 5 6 7 8 9 10 11 12 13 14 15 16 17 18 19 20 21 22 23 24 25 26 27 28 29 30 31 32 33 34 35 36 37 38 39 40 41 42 43 44 45 46 47 48 49 50
000
ASUS44 KMEG 182210
RWRTN
TENNESSEE HOURLY STATE WEATHER ROUNDUP
NATIONAL WEATHER SERVICE MEMPHIS TN
400 PM CST WED JAN 18 2017

TNZ002-004-019-021-049-052-054-088>092-182300-
WEST TENNESSEE

CITY           SKY/WX    TMP DP  RH WIND       PRES   REMARKS
MEMPHIS INTL   CLOUDY    54  43  66 NE7       30.10F
NWS MEMPHIS      N/A     53 N/A N/A MISG        N/A
JACKSON        CLOUDY    53  45  74 E5        30.12S
DYERSBURG      CLOUDY    48  41  76 CALM      30.14R
UNION CITY     PTSUNNY   46  46 100 CALM      30.12S
PARIS          SUNNY     45  39  81 CALM      30.13F
HUNTINGDON     SUNNY     50  43  76 E6        30.12F
$$

TNZ008-025-027-028-033-062-065-066-182300-
NORTH MIDDLE TENNESSEE

CITY           SKY/WX    TMP DP  RH WIND       PRES   REMARKS
NASHVILLE      CLOUDY    49  39  68 E5        30.15F
PORTLAND       CLEAR     50  41  71 CALM      30.13F
CLARKSVILLE    CLOUDY    48  38  68 SE3       30.15S
SMYRNA         CLOUDY    48  42  80 CALM      30.16F
GALLATIN       CLEAR     50  41  71 SE3       30.17F
CROSSVILLE     CLOUDY    52  38  58 CALM      30.12S
$$

TNZ061-075-076-078-094-096-097-182300-
SOUTH MIDDLE TENNESSEE

CITY           SKY/WX    TMP DP  RH WIND       PRES   REMARKS
FAYETTEVILLE   SUNNY     55  46  71 CALM      30.13S
TULLAHOMA      CLEAR     52  43  71 CALM      30.13S
WINCHESTER     CLEAR     55  45  67 CALM      30.12S
MCMINNVILLE    CLEAR     50  45  81 NE5       30.12F
COLUMBIA       SUNNY     52  52 100 NE6       30.11F
SHELBYVILLE    CLEAR     52  46  82 NW3       30.14S
$$

TNZ017-018-042-046-047-182300-
NORTHEAST TENNESSEE

CITY           SKY/WX    TMP DP  RH WIND       PRES   REMARKS
TRI CITIES     MOCLDY    55  38  52 W5        30.08S
ELIZABETHTON   CLEAR     55  39  54 W5        30.08R
$$

TNZ012-013-036-069-073-074-182300-
CENTRAL EAST TENNESSEE

CITY           SKY/WX    TMP DP  RH WIND       PRES   REMARKS
KNOXVILLE      CLOUDY    59  40  49 CALM      30.10R
OAK RIDGE      PTCLDY    59  42  53 VRB3      30.12R
GATLINBURG     CLEAR     55  41  58 NW5       30.10R
MORRISTOWN     CLEAR     55  37  50 NW6       30.10R
JACKSBORO      CLEAR     54  41  62 NE5       30.14R
$$

TNZ083-085-099-182300-
SOUTHEAST TENNESSEE

CITY           SKY/WX    TMP DP  RH WIND       PRES   REMARKS
CHATTANOOGA    CLOUDY    64  44  48 CALM      30.10F
$$

SKY/WX REPORTED AS FAIR MEANS FEW OR NO CLOUDS BELOW
12 THOUSAND FEET.




USA.gov is the U.S. government's official web portal to all federal, state and local government web resources and services.